[[{"header":{"parameterUnit":"m.s-1","parameterCategory":1,"la1":30.2991,"la2":30.254,"lo1":-89.0895,"lo2":-89.0444,"dy":0.0017,"dx":0.0017,"nx":28,"ny":28,"refTime":"2023-11-17T03:00:00:Z","depth":0,"parameterNumber":2,"parameterNumberName":"U-component_of_WINDS"},"data":[0,0,0,0,0,0,0,0,0,0,0,0,0,0,0,0,0,0,0,0,0,0,0,0,0,0,0,0,0,0,0,0,0,0,0,0,0,0,0,0,0,0,0,0,0,0,0,0,0,0,0,0,0,0,0,0,0,0,-0.8256,-0.8256,0,-0.8279,-0.8279,-0.8279,-0.8258,-0.8257,-0.8256,-0.8256,-0.828,-0.8282,-0.8283,0,0,0,0,0,0,0,0,0,0,0,0,0,-0.8195,-0.8196,-0.8256,-0.8256,-0.8257,-0.8279,-0.8279,-0.8279,-0.8258,-0.8257,-0.8256,-0.8255,-0.828,-0.8282,-0.8283,0,0,0,0,0,0,0,0,0,0,0,0,0,-0.822,-0.8196,-0.8256,-0.8249,-0.8248,-0.8279,-0.8279,-0.8279,-0.8259,-0.8257,-0.8256,-0.8255,-0.8279,-0.8281,-0.8284,-0.8323,0,0,-0.829,-0.8291,0,0,0,0,0,0,0,0,-0.8219,-0.8222,-0.8249,-0.8249,-0.8249,-0.8264,-0.8267,-0.8294,-0.8259,-0.8255,-0.8256,-0.8254,-0.8276,-0.8278,-0.8286,-0.8324,-0.8325,-0.829,-0.8292,-0.8293,-0.8293,0,0,0,0,0,0,0,-0.8217,-0.8221,-0.8265,-0.825,-0.8249,-0.8244,-0.8247,-0.8272,-0.8272,-0.8255,-0.8253,-0.8256,-0.8276,-0.8284,-0.8286,-0.8325,-0.829,-0.8292,-0.8294,-0.8294,-0.8398,-0.8399,0,0,0,0,0,0,-0.8216,-0.822,-0.8264,-0.8266,-0.823,-0.8247,-0.8249,-0.8261,-0.8272,-0.8272,-0.8257,-0.8255,-0.828,-0.8284,-0.8287,-0.8335,-0.8293,-0.8295,-0.8296,-0.8396,-0.8398,-0.84,0,0,0,0,0,0,-0.8214,-0.822,-0.8263,-0.8242,-0.8247,-0.8249,-0.8262,-0.8262,-0.827,-0.8274,-0.8274,-0.8265,-0.828,-0.8284,-0.8314,-0.8335,-0.8296,-0.8298,-0.8395,-0.8397,-0.8399,-0.843,0,0,0,0,0,0,-0.8213,-0.822,-0.8234,-0.8243,-0.8249,-0.829,-0.8263,-0.8263,-0.8273,-0.8271,-0.8281,-0.8282,-0.8279,-0.8311,-0.8316,-0.8338,-0.8299,-0.8393,-0.8396,-0.8398,-0.8427,-0.8433,-0.8438,0,0,0,0,0,-0.8211,-0.8242,-0.8235,-0.8241,-0.8267,-0.8291,-0.8295,-0.829,-0.8275,-0.829,-0.8293,-0.8282,-0.8331,-0.8314,-0.832,-0.8342,-0.8392,-0.8395,-0.8398,-0.8425,-0.8432,-0.8438,0,0,0,0,0,0,-0.8237,-0.8243,-0.8236,-0.8271,-0.8281,-0.8288,-0.8307,-0.8298,-0.8313,-0.831,-0.8304,-0.8306,-0.8339,-0.8343,-0.8324,-0.8381,-0.8359,-0.8364,-0.8378,-0.8384,-0.839,-0.8389,-0.8301,0,0,0,0,0,-0.8247,-0.8265,-0.827,-0.8301,-0.8306,-0.8306,-0.8316,-0.8311,-0.8322,-0.8326,-0.8331,-0.8341,-0.836,-0.8372,-0.8389,-0.8427,-0.843,-0.8445,-0.845,-0.8455,-0.846,-0.8482,-0.8489,-0.841,-0.841,-0.841,0,0,-0.8267,-0.8273,-0.8286,-0.8306,-0.8313,-0.8334,-0.8309,-0.8332,-0.8347,-0.8329,-0.8359,-0.8363,-0.8374,-0.8409,-0.8424,-0.8414,-0.8482,-0.8459,-0.8462,-0.8465,-0.8486,-0.8493,-0.85,-0.8412,-0.8412,-0.8412,0,0,-0.8316,-0.8321,-0.8348,-0.8356,-0.8367,-0.8366,-0.8372,-0.8381,-0.8383,-0.8412,-0.8399,-0.8417,-0.8448,-0.8457,-0.8466,-0.8517,-0.8508,-0.8522,-0.8552,-0.8573,-0.8579,-0.8585,-0.8605,-0.8612,-0.8526,-0.8526,-0.8526,0,-0.8341,-0.8371,-0.8363,-0.8387,-0.8397,-0.8381,-0.8408,-0.8416,-0.8432,-0.8439,-0.8426,-0.8465,-0.8472,-0.8509,-0.8522,-0.8528,-0.8537,-0.8522,-0.8579,-0.8584,-0.8589,-0.8608,-0.8616,-0.8528,-0.8528,-0.8528,-0.8528,0,-0.8401,-0.8422,-0.8442,-0.8458,-0.847,-0.8495,-0.8492,-0.8505,-0.8499,-0.85,-0.853,-0.8537,-0.8555,-0.8563,-0.8558,-0.86,-0.8593,-0.8579,-0.8558,-0.8599,-0.8617,-0.8624,-0.8531,-0.853,-0.853,-0.8529,0,0,-0.8469,-0.848,-0.8488,-0.8495,-0.8505,-0.8522,-0.8546,-0.8564,-0.8576,-0.8586,-0.8608,-0.8634,-0.8621,-0.8631,-0.8626,-0.8645,-0.8687,-0.8629,-0.8629,-0.8641,-0.8736,-0.8748,-0.8756,-0.8679,-0.8681,-0.8682,-0.8736,0,-0.852,-0.8563,-0.8557,-0.8598,-0.8618,-0.8602,-0.8624,-0.8633,-0.8634,-0.8651,-0.8652,-0.8671,-0.8652,-0.8658,-0.8675,-0.8678,-0.8706,-0.8674,-0.8701,-0.8702,-0.8701,-0.8765,-0.8778,-0.8829,-0.8742,-0.8743,-0.8744,0,-0.8585,-0.8599,-0.8642,-0.865,-0.8658,-0.8677,-0.8693,-0.8709,-0.8719,-0.8718,-0.8729,-0.8721,-0.8746,-0.8721,-0.8756,-0.8735,-0.8745,-0.8748,-0.8749,-0.8754,-0.8728,-0.8774,-0.8845,-0.8854,-0.8755,-0.8754,-0.8753,0,-0.8633,-0.8662,-0.8692,-0.8698,-0.8707,-0.8722,-0.8726,-0.8734,-0.8746,-0.8759,-0.8766,-0.8783,-0.8792,-0.8805,-0.8802,-0.8784,-0.8838,-0.8813,-0.884,-0.884,-0.8854,-0.8854,-0.893,-0.8857,-0.8857,-0.8856,-0.8856,0,-0.8692,-0.872,-0.8714,-0.8733,-0.8763,-0.8755,-0.8786,-0.8789,-0.8796,-0.8816,-0.8802,-0.8821,-0.8814,-0.8832,-0.8829,-0.8859,-0.8863,-0.8864,-0.8864,-0.8867,-0.8867,-0.8876,-0.8873,-0.8858,-0.8858,-0.8858,-0.8857,0,-0.8752,-0.8749,-0.8781,-0.8787,-0.8789,-0.8811,-0.8816,-0.8834,-0.8833,-0.8858,-0.8863,-0.8863,-0.8883,-0.888,-0.8903,-0.8901,-0.894,-0.8934,-0.8937,-0.8937,-0.8964,-0.8963,-0.9051,-0.9063,-0.8979,-0.898,-0.8981,0,-0.8791,-0.8812,-0.882,-0.8832,-0.8838,-0.8857,-0.8868,-0.886,-0.8873,-0.8885,-0.8902,-0.8921,-0.8937,-0.897,-0.8972,-0.899,-0.8985,-0.9015,-0.8988,-0.8991,-0.8989,-0.8989,-0.8992,-0.9021,-0.9022,-0.9023,-0.9024,0,-0.8862,-0.8859,-0.8875,-0.8892,-0.8905,-0.8917,-0.8928,-0.8939,-0.8932,-0.8947,-0.8968,-0.898,-0.9003,-0.9023,-0.9039,-0.9044,-0.9034,-0.9031,-0.9039,-0.9044,-0.9046,-0.9048,-0.8954,-0.903,-0.903,-0.9029,-0.9029,-0.9029,-0.8914,-0.8932,-0.8941,-0.896,-0.8967,-0.8978,-0.8995,-0.8996,-0.9014,-0.9032,-0.9026,-0.905,-0.9059,-0.908,-0.9087,-0.9106,-0.9095,-0.9106,-0.9109,-0.9112,-0.9117,-0.9041,-0.9108,-0.9108,-0.9108,-0.9108,-0.9108,0,-0.8986,-0.899,-0.9008,-0.9024,-0.9039,-0.9026,-0.9037,-0.9051,-0.9072,-0.9081,-0.9096,-0.9121,-0.914,-0.9142,-0.9161,-0.9176,-0.9171,-0.9181,-0.9181,-0.9183,-0.9124,-0.9117,-0.9184,-0.9184,-0.9184,-0.9184,-0.9184,-0.9184,-0.9025,-0.9056,-0.9055,-0.9089,-0.9093,-0.9117,-0.9125,-0.9135,-0.9142,-0.917,-0.9185,-0.9187,-0.9193,-0.9212,-0.9229,-0.9229,-0.9238,-0.925,-0.9249,-0.9194,-0.9187,-0.918,-0.9173,-0.9251,-0.9251,-0.9306,-0.9307,-0.9307]},{"header":{"parameterUnit":"m.s-1","parameterCategory":1,"la1":30.2991,"la2":30.254,"lo1":-89.0895,"lo2":-89.0444,"dy":0.0017,"dx":0.0017,"nx":28,"ny":28,"refTime":"2023-11-17T03:00:00:Z","depth":0,"parameterNumber":3,"parameterNumberName":"V-component_of_WINDS"},"data":[0,0,0,0,0,0,0,0,0,0,0,0,0,0,0,0,0,0,0,0,0,0,0,0,0,0,0,0,0,0,0,0,0,0,0,0,0,0,0,0,0,0,0,0,0,0,0,0,0,0,0,0,0,0,0,0,0,0,-3.4945,-3.4946,0,-3.4974,-3.4974,-3.4974,-3.4931,-3.4929,-3.4928,-3.4926,-3.4952,-3.4955,-3.4957,0,0,0,0,0,0,0,0,0,0,0,0,0,-3.4851,-3.4853,-3.4945,-3.4946,-3.4946,-3.4974,-3.4974,-3.4975,-3.4931,-3.4929,-3.4927,-3.4925,-3.4952,-3.4954,-3.4957,0,0,0,0,0,0,0,0,0,0,0,0,0,-3.4887,-3.4854,-3.4945,-3.4928,-3.4926,-3.4974,-3.4974,-3.4975,-3.4931,-3.4929,-3.4927,-3.4925,-3.4951,-3.4954,-3.4957,-3.5022,0,0,-3.4967,-3.4968,0,0,0,0,0,0,0,0,-3.4885,-3.489,-3.493,-3.4929,-3.4928,-3.4946,-3.4951,-3.499,-3.4932,-3.4929,-3.4926,-3.4923,-3.4952,-3.4955,-3.4965,-3.5023,-3.5024,-3.4967,-3.4969,-3.497,-3.4971,0,0,0,0,0,0,0,-3.4883,-3.4889,-3.4956,-3.4931,-3.4929,-3.4918,-3.492,-3.4958,-3.4953,-3.4929,-3.4926,-3.493,-3.4951,-3.4962,-3.4966,-3.5025,-3.4967,-3.497,-3.4972,-3.4973,-3.514,-3.5142,0,0,0,0,0,0,-3.4883,-3.4887,-3.4956,-3.4957,-3.49,-3.4921,-3.4924,-3.4943,-3.4952,-3.4952,-3.4932,-3.4928,-3.4958,-3.4962,-3.4966,-3.5045,-3.497,-3.4973,-3.4975,-3.5137,-3.514,-3.5143,0,0,0,0,0,0,-3.4881,-3.4889,-3.4954,-3.4922,-3.4929,-3.4925,-3.4946,-3.4944,-3.4956,-3.4955,-3.4953,-3.4945,-3.4956,-3.4962,-3.5009,-3.5045,-3.4975,-3.4978,-3.5134,-3.5138,-3.5141,-3.5202,0,0,0,0,0,0,-3.4878,-3.4889,-3.4914,-3.4922,-3.4931,-3.4998,-3.4949,-3.4947,-3.4962,-3.4957,-3.4966,-3.4966,-3.4955,-3.5005,-3.5012,-3.5048,-3.498,-3.5131,-3.5136,-3.514,-3.5197,-3.5207,-3.5216,0,0,0,0,0,-3.4875,-3.4929,-3.4915,-3.4924,-3.4962,-3.5,-3.5005,-3.4992,-3.4965,-3.499,-3.4989,-3.4965,-3.504,-3.501,-3.5018,-3.5056,-3.5129,-3.5134,-3.514,-3.5192,-3.5205,-3.5216,0,0,0,0,0,0,-3.4923,-3.4929,-3.4915,-3.4973,-3.4986,-3.4992,-3.5024,-3.5006,-3.5027,-3.5021,-3.5003,-3.5006,-3.5058,-3.5061,-3.5028,-3.512,-3.5079,-3.5087,-3.5116,-3.5129,-3.5138,-3.5137,-3.4983,0,0,0,0,0,-3.494,-3.4971,-3.4974,-3.5025,-3.5033,-3.5028,-3.5043,-3.5033,-3.5045,-3.5051,-3.5054,-3.5066,-3.5093,-3.511,-3.5134,-3.5196,-3.5198,-3.5226,-3.5236,-3.5244,-3.5251,-3.5286,-3.5299,-3.5162,-3.5161,-3.5161,0,0,-3.4976,-3.4984,-3.5004,-3.5035,-3.5045,-3.5077,-3.5033,-3.5068,-3.5092,-3.5056,-3.5102,-3.5104,-3.5117,-3.5173,-3.5197,-3.5177,-3.5289,-3.5251,-3.5257,-3.526,-3.5293,-3.5306,-3.5318,-3.5165,-3.5165,-3.5164,0,0,-3.5059,-3.5067,-3.5112,-3.5122,-3.5138,-3.5134,-3.5144,-3.5153,-3.5154,-3.52,-3.5175,-3.5202,-3.5247,-3.5258,-3.527,-3.5358,-3.5337,-3.5366,-3.5418,-3.5452,-3.5463,-3.5473,-3.5506,-3.5518,-3.5373,-3.5373,-3.5373,0,-3.5102,-3.515,-3.5136,-3.5175,-3.519,-3.516,-3.5205,-3.5215,-3.5237,-3.5248,-3.5225,-3.5283,-3.5289,-3.5348,-3.537,-3.5379,-3.5391,-3.5366,-3.5463,-3.5472,-3.5481,-3.5513,-3.5525,-3.5377,-3.5376,-3.5376,-3.5376,0,-3.5203,-3.5237,-3.5271,-3.5295,-3.5314,-3.5355,-3.5347,-3.5367,-3.5355,-3.5353,-3.5401,-3.5408,-3.5434,-3.5446,-3.5434,-3.5504,-3.5491,-3.5466,-3.5425,-3.5498,-3.5528,-3.5539,-3.5382,-3.538,-3.5379,-3.5379,0,0,-3.5318,-3.5335,-3.5347,-3.5359,-3.5374,-3.5399,-3.5439,-3.5466,-3.5484,-3.55,-3.5534,-3.5573,-3.5551,-3.5564,-3.5552,-3.5582,-3.5654,-3.5553,-3.5553,-3.5573,-3.5734,-3.5755,-3.5769,-3.564,-3.5642,-3.5644,-3.5734,0,-3.5402,-3.5473,-3.5462,-3.5531,-3.5563,-3.5535,-3.557,-3.5583,-3.5582,-3.5609,-3.5607,-3.5637,-3.5603,-3.5611,-3.5639,-3.5639,-3.5686,-3.5632,-3.5672,-3.5673,-3.5672,-3.5784,-3.5806,-3.5891,-3.5745,-3.5747,-3.5748,0,-3.5511,-3.5533,-3.5605,-3.5617,-3.563,-3.5662,-3.5686,-3.5711,-3.5725,-3.5723,-3.5739,-3.5722,-3.5762,-3.5719,-3.5774,-3.5738,-3.5753,-3.5756,-3.5758,-3.5763,-3.5717,-3.5794,-3.5917,-3.5931,-3.5766,-3.5764,-3.5763,0,-3.559,-3.5637,-3.5687,-3.5697,-3.5712,-3.5735,-3.5742,-3.5754,-3.5771,-3.5792,-3.5803,-3.5827,-3.5841,-3.586,-3.5851,-3.582,-3.5908,-3.5864,-3.5908,-3.5909,-3.593,-3.5929,-3.6059,-3.5936,-3.5935,-3.5935,-3.5935,0,-3.5687,-3.5733,-3.5724,-3.5755,-3.5805,-3.5792,-3.5842,-3.5845,-3.5856,-3.5887,-3.5863,-3.5892,-3.5877,-3.5905,-3.5897,-3.5945,-3.5951,-3.595,-3.5948,-3.5954,-3.5955,-3.5965,-3.596,-3.5939,-3.5938,-3.5937,-3.5937,0,-3.5785,-3.578,-3.5834,-3.5843,-3.5847,-3.5884,-3.5892,-3.5921,-3.5919,-3.5958,-3.5966,-3.5963,-3.5995,-3.5987,-3.6021,-3.6016,-3.6077,-3.6066,-3.6074,-3.6072,-3.6117,-3.6114,-3.626,-3.628,-3.6142,-3.6143,-3.6144,0,-3.5848,-3.5883,-3.5898,-3.5917,-3.5927,-3.5958,-3.5977,-3.5964,-3.5984,-3.6003,-3.603,-3.606,-3.6084,-3.6136,-3.6136,-3.6163,-3.6154,-3.6203,-3.6157,-3.6163,-3.6157,-3.6156,-3.6161,-3.6213,-3.6215,-3.6216,-3.6217,0,-3.5962,-3.5959,-3.5986,-3.6014,-3.6037,-3.6057,-3.6076,-3.6093,-3.6082,-3.6105,-3.6139,-3.6157,-3.6193,-3.6224,-3.6248,-3.6254,-3.6235,-3.6231,-3.6243,-3.6251,-3.6254,-3.6255,-3.6101,-3.6228,-3.6227,-3.6226,-3.6226,-3.6225,-3.6046,-3.6077,-3.6093,-3.6125,-3.6138,-3.6156,-3.6184,-3.6186,-3.6214,-3.6244,-3.6234,-3.6273,-3.6286,-3.6317,-3.6327,-3.6356,-3.6337,-3.6354,-3.6359,-3.6364,-3.6371,-3.6248,-3.636,-3.636,-3.6359,-3.6359,-3.6359,0,-3.6161,-3.617,-3.62,-3.6227,-3.6253,-3.6232,-3.6252,-3.6274,-3.6309,-3.6324,-3.6348,-3.6387,-3.6417,-3.642,-3.6448,-3.6471,-3.6463,-3.6479,-3.6479,-3.6481,-3.6385,-3.6373,-3.6486,-3.6486,-3.6486,-3.6486,-3.6486,-3.6486,-3.6224,-3.6276,-3.6275,-3.6332,-3.634,-3.638,-3.6393,-3.6409,-3.6421,-3.6467,-3.6492,-3.6494,-3.6504,-3.6533,-3.656,-3.656,-3.6572,-3.6593,-3.6589,-3.65,-3.6487,-3.6475,-3.6464,-3.6595,-3.6595,-3.6683,-3.6684,-3.6685]}]]